| time (UTC) | temp F | wind direction | speed MPH | gust MPH | rain 1hr in | rain 24hr in | rain mn in | humidity % | barometer mb |
| 20260503222329 | 78 | 186 | 13.0 | 16.0 | 0.00 | 0.00 | 0.00 | 38 | 1015.9 |
| 20260503221827 | 78 | 191 | 6.0 | 7.0 | 0.00 | 0.00 | 0.00 | 41 | 1016.0 |
| 20260503221325 | 78 | 202 | 9.0 | 11.0 | 0.00 | 0.00 | 0.00 | 39 | 1016.1 |
| 20260503220815 | 78 | 195 | 3.0 | 4.0 | 0.00 | 0.00 | 0.00 | 39 | 1016.1 |
| 20260503220312 | 79 | 190 | 9.0 | 11.0 | 0.00 | 0.00 | 0.00 | 40 | 1016.3 |
| 20260503215809 | 79 | 209 | 8.0 | 11.0 | 0.00 | 0.00 | 0.00 | 40 | 1016.1 |
| 20260503215306 | 79 | 222 | 5.0 | 8.0 | 0.00 | 0.00 | 0.00 | 41 | 1016.3 |
| 20260503214804 | 80 | 222 | 4.0 | 7.0 | 0.00 | 0.00 | 0.00 | 43 | 1016.3 |
| 20260503214301 | 79 | 247 | 1.0 | 2.0 | 0.00 | 0.00 | 0.00 | 41 | 1016.3 |
| 20260503213758 | 79 | 228 | 6.0 | 7.0 | 0.00 | 0.00 | 0.00 | 39 | 1016.5 |
| 20260503213255 | 79 | 214 | 10.0 | 11.0 | 0.00 | 0.00 | 0.00 | 39 | 1016.6 |
| 20260503212752 | 79 | 201 | 10.0 | 13.0 | 0.00 | 0.00 | 0.00 | 41 | 1016.4 |
| 20260503212250 | 78 | 175 | 5.0 | 9.0 | 0.00 | 0.00 | 0.00 | 43 | 1016.6 |
| 20260503211747 | 79 | 198 | 5.0 | 6.0 | 0.00 | 0.00 | 0.00 | 40 | 1016.7 |
| 20260503211243 | 80 | 203 | 4.0 | 4.0 | 0.00 | 0.00 | 0.00 | 43 | 1016.8 |
| 20260503210739 | 79 | 158 | 3.0 | 4.0 | 0.00 | 0.00 | 0.00 | 41 | 1016.8 |
| 20260503210237 | 79 | 166 | 5.0 | 7.0 | 0.00 | 0.00 | 0.00 | 41 | 1016.6 |
| 20260503205732 | 79 | 170 | 5.0 | 7.0 | 0.00 | 0.00 | 0.00 | 41 | 1017.1 |
| 20260503205228 | 79 | 184 | 7.0 | 9.0 | 0.00 | 0.00 | 0.00 | 42 | 1017.2 |
| 20260503204725 | 79 | 176 | 7.0 | 8.0 | 0.00 | 0.00 | 0.00 | 42 | 1017.0 |
| 20260503204223 | 79 | 181 | 6.0 | 9.0 | 0.00 | 0.00 | 0.00 | 43 | 1017.5 |
| 20260503203720 | 79 | 230 | 4.0 | 7.0 | 0.00 | 0.00 | 0.00 | 41 | 1017.4 |
| 20260503203217 | 79 | 274 | 4.0 | 6.0 | 0.00 | 0.00 | 0.00 | 41 | 1017.5 |
| 20260503202714 | 79 | 201 | 6.0 | 7.0 | 0.00 | 0.00 | 0.00 | 38 | 1017.6 |
| 20260503202212 | 79 | 173 | 4.0 | 6.0 | 0.00 | 0.00 | 0.00 | 41 | 1017.8 |
| 20260503201710 | 79 | 171 | 5.0 | 8.0 | 0.00 | 0.00 | 0.00 | 41 | 1017.9 |
| 20260503201207 | 78 | 182 | 5.0 | 7.0 | 0.00 | 0.00 | 0.00 | 42 | 1018.1 |
| 20260503200703 | 78 | 193 | 2.0 | 8.0 | 0.00 | 0.00 | 0.00 | 44 | 1017.7 |
| 20260503200200 | 79 | 180 | 9.0 | 10.0 | 0.00 | 0.00 | 0.00 | 43 | 1018.1 |
| 20260503195656 | 79 | 146 | 8.0 | 11.0 | 0.00 | 0.00 | 0.00 | 39 | 1017.9 |
| 20260503195154 | 79 | 187 | 6.0 | 7.0 | 0.00 | 0.00 | 0.00 | 42 | 1018.1 |
| 20260503194650 | 78 | 169 | 5.0 | 8.0 | 0.00 | 0.00 | 0.00 | 45 | 1017.9 |
| 20260503194146 | 78 | 200 | 6.0 | 7.0 | 0.00 | 0.00 | 0.00 | 43 | 1018.5 |
| 20260503193643 | 78 | 193 | 7.0 | 9.0 | 0.00 | 0.00 | 0.00 | 38 | 1018.2 |
| 20260503193138 | 78 | 227 | 6.0 | 9.0 | 0.00 | 0.00 | 0.00 | 44 | 1018.5 |
| 20260503192634 | 78 | 201 | 7.0 | 8.0 | 0.00 | 0.00 | 0.00 | 42 | 1018.6 |
| 20260503192130 | 78 | 141 | 8.0 | 10.0 | 0.00 | 0.00 | 0.00 | 41 | 1018.5 |
| 20260503191627 | 78 | 225 | 4.0 | 9.0 | 0.00 | 0.00 | 0.00 | 46 | 1019.0 |
| 20260503191124 | 78 | 204 | 3.0 | 3.0 | 0.00 | 0.00 | 0.00 | 47 | 1019.1 |
| 20260503190621 | 78 | 197 | 9.0 | 10.0 | 0.00 | 0.00 | 0.00 | 47 | 1019.0 |
| 20260503190118 | 78 | 224 | 9.0 | 13.0 | 0.00 | 0.00 | 0.00 | 46 | 1019.1 |
| 20260503185614 | 78 | 201 | 8.0 | 10.0 | 0.00 | 0.00 | 0.00 | 45 | 1019.3 |
| 20260503185109 | 78 | 170 | 5.0 | 7.0 | 0.00 | 0.00 | 0.00 | 48 | 1019.1 |
| 20260503184604 | 77 | 179 | 2.0 | 3.0 | 0.00 | 0.00 | 0.00 | 48 | 1019.0 |
| 20260503184101 | 78 | 205 | 8.0 | 13.0 | 0.00 | 0.00 | 0.00 | 44 | 1019.3 |
| 20260503183557 | 77 | 230 | 2.0 | 3.0 | 0.00 | 0.00 | 0.00 | 49 | 1019.3 |
| 20260503183055 | 77 | 197 | 4.0 | 4.0 | 0.00 | 0.00 | 0.00 | 47 | 1019.6 |
| 20260503182553 | 77 | 200 | 6.0 | 8.0 | 0.00 | 0.00 | 0.00 | 45 | 1019.4 |
| 20260503182051 | 77 | 226 | 0.0 | 1.0 | 0.00 | 0.00 | 0.00 | 47 | 1019.5 |
| 20260503181548 | 77 | 253 | 4.0 | 6.0 | 0.00 | 0.00 | 0.00 | 45 | 1019.9 |
| 20260503181044 | 77 | 253 | 5.0 | 7.0 | 0.00 | 0.00 | 0.00 | 43 | 1019.8 |
| 20260503180541 | 77 | 226 | 5.0 | 7.0 | 0.00 | 0.00 | 0.00 | 45 | 1019.7 |
| 20260503180039 | 77 | 223 | 1.0 | 2.0 | 0.00 | 0.00 | 0.00 | 45 | 1020.2 |
| 20260503175536 | 77 | 212 | 6.0 | 7.0 | 0.00 | 0.00 | 0.00 | 48 | 1019.9 |
| 20260503175033 | 76 | 256 | 6.0 | 8.0 | 0.00 | 0.00 | 0.00 | 45 | 1020.1 |
| 20260503174530 | 77 | 198 | 11.0 | 14.0 | 0.00 | 0.00 | 0.00 | 49 | 1020.2 |
| 20260503174026 | 76 | 184 | 1.0 | 2.0 | 0.00 | 0.00 | 0.00 | 52 | 1020.4 |
| 20260503173522 | 76 | 193 | 7.0 | 8.0 | 0.00 | 0.00 | 0.00 | 50 | 1020.5 |
| 20260503173018 | 75 | 205 | 6.0 | 7.0 | 0.00 | 0.00 | 0.00 | 52 | 1020.3 |
| 20260503172516 | 76 | 238 | 2.0 | 6.0 | 0.00 | 0.00 | 0.00 | 53 | 1020.6 |
| 20260503172013 | 75 | 182 | 2.0 | 6.0 | 0.00 | 0.00 | 0.00 | 56 | 1020.8 |
| 20260503171509 | 75 | 187 | 4.0 | 6.0 | 0.00 | 0.00 | 0.00 | 54 | 1020.9 |
| 20260503171007 | 75 | 225 | 8.0 | 9.0 | 0.00 | 0.00 | 0.00 | 53 | 1020.8 |
| 20260503170503 | 75 | 264 | 6.0 | 8.0 | 0.00 | 0.00 | 0.00 | 54 | 1020.8 |
| 20260503150855 | 69 | 215 | 7.0 | 10.0 | 0.00 | 0.00 | 0.00 | 64 | 1021.1 |
| 20260503150351 | 69 | 203 | 0.0 | 1.0 | 0.00 | 0.00 | 0.00 | 66 | 1021.1 |
| 20260503131245 | 62 | 212 | 4.0 | 4.0 | 0.00 | 0.00 | 0.00 | 71 | 1020.7 |
| 20260503130743 | 62 | 258 | 4.0 | 6.0 | 0.00 | 0.00 | 0.00 | 71 | 1020.6 |
| 20260503130240 | 61 | 231 | 4.0 | 4.0 | 0.00 | 0.00 | 0.00 | 72 | 1020.7 |
| 20260503120206 | 57 | 208 | 5.0 | 6.0 | 0.00 | 0.00 | 0.00 | 79 | 1020.1 |
| 20260503110633 | 56 | 223 | 2.0 | 2.0 | 0.00 | 0.00 | 0.00 | 81 | 1019.6 |
| 20260503110131 | 56 | 227 | 3.0 | 4.0 | 0.00 | 0.00 | 0.00 | 80 | 1019.4 |
| 20260503081434 | 58 | 195 | 5.0 | 7.0 | 0.00 | 0.00 | 0.00 | 75 | 1019.3 |
| 20260503080932 | 58 | 195 | 3.0 | 4.0 | 0.00 | 0.00 | 0.00 | 75 | 1019.2 |
| 20260503080428 | 58 | 222 | 4.0 | 4.0 | 0.00 | 0.00 | 0.00 | 75 | 1019.3 |
| 20260503072904 | 58 | 225 | 2.0 | 4.0 | 0.00 | 0.00 | 0.00 | 72 | 1019.5 |
| 20260503072401 | 58 | 205 | 3.0 | 4.0 | 0.00 | 0.00 | 0.00 | 72 | 1019.8 |
| 20260503071858 | 59 | 196 | 0.0 | 0.0 | 0.00 | 0.00 | 0.00 | 71 | 1019.8 |
| 20260503071355 | 59 | 212 | 1.0 | 2.0 | 0.00 | 0.00 | 0.00 | 70 | 1019.7 |
| 20260503070851 | 59 | 201 | 0.0 | 0.0 | 0.00 | 0.00 | 0.00 | 71 | 1019.8 |
| 20260503070349 | 59 | 201 | 3.0 | 4.0 | 0.00 | 0.00 | 0.00 | 70 | 1019.7 |
| 20260503060315 | 60 | 188 | 2.0 | 3.0 | 0.00 | 0.00 | 0.00 | 68 | 1019.6 |
| 20260503054802 | 60 | 210 | 2.0 | 3.0 | 0.00 | 0.00 | 0.00 | 68 | 1019.8 |
| 20260503054258 | 60 | 208 | 0.0 | 0.0 | 0.00 | 0.00 | 0.00 | 68 | 1019.7 |
| 20260503053756 | 60 | 208 | 0.0 | 0.0 | 0.00 | 0.00 | 0.00 | 69 | 1019.8 |
| 20260503053255 | 60 | 206 | 0.0 | 0.0 | 0.00 | 0.00 | 0.00 | 69 | 1019.6 |
| 20260503052750 | 60 | 202 | 0.0 | 0.0 | 0.00 | 0.00 | 0.00 | 68 | 1019.4 |
| 20260503052248 | 60 | 211 | 0.0 | 0.0 | 0.00 | 0.00 | 0.00 | 68 | 1019.6 |
| 20260503051743 | 61 | 202 | 0.0 | 0.0 | 0.00 | 0.00 | 0.00 | 68 | 1019.7 |
| 20260503051240 | 61 | 201 | 0.0 | 0.0 | 0.00 | 0.00 | 0.00 | 67 | 1019.4 |
| 20260503050736 | 61 | 211 | 3.0 | 3.0 | 0.00 | 0.00 | 0.00 | 65 | 1019.4 |
| 20260503050227 | 61 | 201 | 0.0 | 0.0 | 0.00 | 0.00 | 0.00 | 65 | 1019.4 |
| 20260503045725 | 61 | 209 | 0.0 | 0.0 | 0.00 | 0.00 | 0.00 | 65 | 1019.5 |
| 20260503045223 | 61 | 210 | 0.0 | 0.0 | 0.00 | 0.00 | 0.00 | 67 | 1019.3 |
| 20260503044719 | 61 | 202 | 0.0 | 0.0 | 0.00 | 0.00 | 0.00 | 66 | 1019.2 |
| 20260503044216 | 61 | 202 | 0.0 | 0.0 | 0.00 | 0.00 | 0.00 | 67 | 1019.5 |
| 20260503043713 | 61 | 201 | 2.0 | 3.0 | 0.00 | 0.00 | 0.00 | 66 | 1019.2 |
| 20260503043211 | 62 | 200 | 0.0 | 0.0 | 0.00 | 0.00 | 0.00 | 66 | 1019.4 |
| 20260503042706 | 62 | 200 | 0.0 | 0.0 | 0.00 | 0.00 | 0.00 | 65 | 1019.4 |
| 20260503042203 | 62 | 200 | 0.0 | 0.0 | 0.00 | 0.00 | 0.00 | 64 | 1019.3 |
| 20260503041659 | 61 | 204 | 1.0 | 2.0 | 0.00 | 0.00 | 0.00 | 65 | 1019.4 |
| 20260503041157 | 61 | 206 | 0.0 | 0.0 | 0.00 | 0.00 | 0.00 | 66 | 1019.5 |
| 20260503040654 | 61 | 206 | 0.0 | 0.0 | 0.00 | 0.00 | 0.00 | 66 | 1019.5 |
| 20260503040152 | 61 | 202 | 0.0 | 0.0 | 0.00 | 0.00 | 0.00 | 66 | 1019.5 |
| 20260503035648 | 60 | 206 | 0.0 | 0.0 | 0.00 | 0.00 | 0.00 | 68 | 1019.4 |
| 20260503035146 | 60 | 212 | 0.0 | 0.0 | 0.00 | 0.00 | 0.00 | 69 | 1019.5 |
| 20260503034643 | 59 | 211 | 0.0 | 0.0 | 0.00 | 0.00 | 0.00 | 71 | 1019.5 |
| 20260503034140 | 60 | 213 | 0.0 | 0.0 | 0.00 | 0.00 | 0.00 | 71 | 1019.4 |
| 20260503033637 | 60 | 213 | 0.0 | 0.0 | 0.00 | 0.00 | 0.00 | 70 | 1019.4 |
| 20260503033135 | 60 | 213 | 0.0 | 0.0 | 0.00 | 0.00 | 0.00 | 71 | 1019.5 |
| 20260503032633 | 60 | 213 | 0.0 | 0.0 | 0.00 | 0.00 | 0.00 | 71 | 1019.5 |
| 20260503032131 | 60 | 213 | 0.0 | 0.0 | 0.00 | 0.00 | 0.00 | 71 | 1019.4 |
| 20260503031628 | 60 | 213 | 0.0 | 0.0 | 0.00 | 0.00 | 0.00 | 70 | 1019.4 |
| 20260503031126 | 60 | 213 | 0.0 | 0.0 | 0.00 | 0.00 | 0.00 | 70 | 1019.3 |
| 20260503030621 | 61 | 213 | 0.0 | 0.0 | 0.00 | 0.00 | 0.00 | 68 | 1019.3 |
| 20260503030119 | 61 | 213 | 0.0 | 0.0 | 0.00 | 0.00 | 0.00 | 67 | 1019.1 |
| 20260503025615 | 61 | 214 | 0.0 | 0.0 | 0.00 | 0.00 | 0.00 | 66 | 1019.0 |
| 20260503025113 | 60 | 214 | 0.0 | 0.0 | 0.00 | 0.00 | 0.00 | 69 | 1019.1 |
| 20260503024609 | 61 | 214 | 0.0 | 0.0 | 0.00 | 0.00 | 0.00 | 70 | 1019.1 |
| 20260503024106 | 61 | 214 | 0.0 | 0.0 | 0.00 | 0.00 | 0.00 | 70 | 1019.3 |
| 20260503023604 | 61 | 214 | 0.0 | 0.0 | 0.00 | 0.00 | 0.00 | 69 | 1019.1 |
| 20260503023101 | 61 | 214 | 0.0 | 0.0 | 0.00 | 0.00 | 0.00 | 70 | 1019.0 |
| 20260503022556 | 61 | 214 | 0.0 | 0.0 | 0.00 | 0.00 | 0.00 | 70 | 1018.9 |
| 20260503022051 | 61 | 214 | 0.0 | 0.0 | 0.00 | 0.00 | 0.00 | 71 | 1018.9 |
| 20260503021548 | 62 | 214 | 0.0 | 0.0 | 0.00 | 0.00 | 0.00 | 70 | 1018.9 |
| 20260503021045 | 62 | 214 | 0.0 | 0.0 | 0.00 | 0.00 | 0.00 | 70 | 1019.1 |
| 20260503020542 | 62 | 214 | 0.0 | 0.0 | 0.00 | 0.00 | 0.00 | 70 | 1018.8 |
| 20260503020039 | 62 | 214 | 0.0 | 0.0 | 0.00 | 0.00 | 0.00 | 70 | 1018.4 |
| 20260503015536 | 63 | 213 | 0.0 | 0.0 | 0.00 | 0.00 | 0.00 | 69 | 1018.4 |
| 20260503015033 | 64 | 214 | 0.0 | 0.0 | 0.00 | 0.00 | 0.00 | 66 | 1018.3 |
| 20260503014529 | 64 | 214 | 0.0 | 0.0 | 0.00 | 0.00 | 0.00 | 64 | 1018.4 |
| 20260503014027 | 64 | 214 | 0.0 | 0.0 | 0.00 | 0.00 | 0.00 | 63 | 1018.6 |
| 20260503013524 | 65 | 213 | 0.0 | 0.0 | 0.00 | 0.00 | 0.00 | 62 | 1018.4 |
| 20260503013022 | 66 | 213 | 0.0 | 0.0 | 0.00 | 0.00 | 0.00 | 60 | 1018.4 |
| 20260503012519 | 66 | 213 | 0.0 | 0.0 | 0.00 | 0.00 | 0.00 | 60 | 1018.2 |
| 20260503012015 | 67 | 213 | 0.0 | 0.0 | 0.00 | 0.00 | 0.00 | 57 | 1018.3 |
| 20260503011512 | 68 | 214 | 0.0 | 0.0 | 0.00 | 0.00 | 0.00 | 54 | 1018.1 |
| 20260503011009 | 69 | 214 | 0.0 | 0.0 | 0.00 | 0.00 | 0.00 | 53 | 1018.5 |
| 20260503010505 | 69 | 214 | 0.0 | 0.0 | 0.00 | 0.00 | 0.00 | 51 | 1018.4 |
| 20260503010003 | 69 | 210 | 0.0 | 0.0 | 0.00 | 0.00 | 0.00 | 51 | 1018.2 |
| 20260503005500 | 70 | 209 | 0.0 | 0.0 | 0.00 | 0.00 | 0.00 | 50 | 1018.1 |
| 20260503004957 | 70 | 227 | 0.0 | 0.0 | 0.00 | 0.00 | 0.00 | 48 | 1018.2 |
| 20260503004453 | 70 | 227 | 0.0 | 0.0 | 0.00 | 0.00 | 0.00 | 52 | 1018.2 |
| 20260503003951 | 71 | 227 | 0.0 | 0.0 | 0.00 | 0.00 | 0.00 | 49 | 1018.3 |
| 20260503003447 | 71 | 227 | 0.0 | 0.0 | 0.00 | 0.00 | 0.00 | 48 | 1018.4 |
| 20260503002944 | 72 | 227 | 0.0 | 0.0 | 0.00 | 0.00 | 0.00 | 46 | 1018.5 |
| 20260503002442 | 72 | 227 | 0.0 | 0.0 | 0.00 | 0.00 | 0.00 | 46 | 1018.0 |
| 20260503001938 | 72 | 226 | 0.0 | 0.0 | 0.00 | 0.00 | 0.00 | 44 | 1018.1 |
| 20260503001435 | 73 | 243 | 0.0 | 0.0 | 0.00 | 0.00 | 0.00 | 44 | 1018.3 |
| 20260503000932 | 73 | 214 | 0.0 | 0.0 | 0.00 | 0.00 | 0.00 | 42 | 1018.2 |
| 20260503000430 | 73 | 230 | 0.0 | 0.0 | 0.00 | 0.00 | 0.00 | 43 | 1018.1 |
| 20260502235927 | 73 | 283 | 0.0 | 0.0 | 0.00 | 0.00 | 0.00 | 40 | 1018.3 |
| 20260502235423 | 73 | 262 | 0.0 | 0.0 | 0.00 | 0.00 | 0.00 | 40 | 1018.3 |
| 20260502234921 | 73 | 257 | 1.0 | 1.0 | 0.00 | 0.00 | 0.00 | 42 | 1018.0 |
| 20260502234417 | 73 | 332 | 0.0 | 0.0 | 0.00 | 0.00 | 0.00 | 39 | 1017.9 |
| 20260502233914 | 74 | 312 | 1.0 | 3.0 | 0.00 | 0.00 | 0.00 | 40 | 1018.2 |
| 20260502233409 | 75 | 258 | 2.0 | 3.0 | 0.00 | 0.00 | 0.00 | 38 | 1018.2 |
| 20260502232907 | 76 | 239 | 0.0 | 0.0 | 0.00 | 0.00 | 0.00 | 40 | 1018.1 |
| 20260502232403 | 75 | 245 | 0.0 | 0.0 | 0.00 | 0.00 | 0.00 | 40 | 1018.1 |
| 20260502231900 | 74 | 204 | 3.0 | 3.0 | 0.00 | 0.00 | 0.00 | 38 | 1018.2 |
| 20260502231358 | 74 | 288 | 0.0 | 0.0 | 0.00 | 0.00 | 0.00 | 40 | 1018.1 |
| 20260502230856 | 75 | 342 | 6.0 | 7.0 | 0.00 | 0.00 | 0.00 | 38 | 1018.3 |
| 20260502230354 | 75 | 303 | 0.0 | 0.0 | 0.00 | 0.00 | 0.00 | 38 | 1018.2 |
| 20260502225850 | 74 | 306 | 0.0 | 0.0 | 0.00 | 0.00 | 0.00 | 41 | 1018.3 |
| 20260502225347 | 74 | 354 | 0.0 | 0.0 | 0.00 | 0.00 | 0.00 | 39 | 1018.1 |
| 20260502224844 | 74 | 27 | 1.0 | 2.0 | 0.00 | 0.00 | 0.00 | 38 | 1018.3 |
| 20260502224340 | 75 | 30 | 2.0 | 4.0 | 0.00 | 0.00 | 0.00 | 41 | 1018.4 |
| 20260502223837 | 76 | 48 | 0.0 | 0.0 | 0.00 | 0.00 | 0.00 | 41 | 1018.2 |
| 20260502223335 | 75 | 292 | 0.0 | 0.0 | 0.00 | 0.00 | 0.00 | 37 | 1018.4 |
| 20260502222833 | 74 | 293 | 0.0 | 0.0 | 0.00 | 0.00 | 0.00 | 39 | 1018.3 |